Regional Weather Roundup
Issued by NWS

Home | Current Version | Previous Version | Text Only | Print | Product List | Glossary On
Versions: 1 2 3 4 5 6 7 8 9 10 11 12 13 14 15 16 17 18 19 20 21 22 23 24 25 26 27 28 29 30 31 32 33 34 35 36 37 38 39 40 41
000
ASUS43 KMKX 231100
RWRWI

WISCONSIN REGIONAL WEATHER ROUNDUP
NATIONAL WEATHER SERVICE MILWAUKEE/SULLIVAN WI
600 AM CDT TUE AUG 23 2016

NOTE: "FAIR" INDICATES FEW OR NO CLOUDS BELOW 12,000 FEET WITH NO
SIGNIFICANT WEATHER AND/OR OBSTRUCTIONS TO VISIBILITY.

WIZ001-002-006>008-014>016-023>028-231200-
NORTHWEST WISCONSIN

CITY           SKY/WX    TMP DP  RH WIND       PRES   REMARKS
SUPERIOR ARPT  CLEAR     66  61  84 SW6       29.90S
ASHLAND        CLEAR     67  60  78 S9        29.95R
HAYWARD        CLEAR     66  59  78 S10       29.99R
SIREN          CLEAR     67  59  74 S9        29.95S
CUMBERLAND     CLEAR     61  57  88 S7        29.99R
RICE LAKE      CLEAR     63  58  84 S6        30.01S
CHETEK         NOT AVBL
LADYSMITH      CLEAR     62  59  92 SE5       30.04S
EAU CLAIRE     NOT AVBL
MENOMONIE      PTCLDY    63  59  88 E6        30.01R
NEW RICHMOND   PTCLDY    64  58  81 SE5       29.97S
OSCEOLA        CLOUDY    65  60  81 SE8       29.98S
$$

WIZ003>005-009-010-017-018-231200-
NORTH CENTRAL WISCONSIN

CITY           SKY/WX    TMP DP  RH WIND       PRES   REMARKS
MANITOWISH WTR NOT AVBL
ARBOR VITAE    CLEAR     62  60  93 S6        30.05S
WOODRUFF       CLEAR     62  60  93 S6        30.05S
RHINELANDER    CLEAR     61  61 100 SW6       30.08S
EAGLE RIVER    CLEAR     61  60  98 SW7       30.06S
LAND O LAKES   CLEAR     61  60  96 S5        30.06S
PHILLIPS       CLEAR     60  59  97 S5        30.04R
TOMAHAWK       CLEAR     56  55  96 CALM      30.07S FOG
MEDFORD        CLEAR     58  58 100 S6        30.06R
MERRILL        CLEAR     62  60  94 S3        30.08R
$$

WIZ029-030-035-036-043>047-231200-
CENTRAL WISCONSIN

CITY           SKY/WX    TMP DP  RH WIND       PRES   REMARKS
WAUSAU         CLEAR     59  58  96 S7        30.07S
MOSINEE        CLEAR     57  57 100 S6        30.09S
MARSHFIELD     CLEAR     58  56  93 S7        30.07R
STEVENS POINT  CLEAR     58  57  97 S5        30.09S
WAUPACA        CLEAR     59  59  97 CALM      30.10S
WAUTOMA        CLEAR     56  55  97 CALM      30.11S
WISC RAPIDS    CLEAR     61  60  97 S6        30.10R
CAMP DOUGLAS   NOT AVBL
$$

WIZ011>013-019>022-031-037>040-048>050-231200-
NORTHEAST WISCONSIN

CITY           SKY/WX    TMP DP  RH WIND       PRES   REMARKS
ANTIGO         CLEAR     58  57  99 CALM      30.09S
SHAWANO        CLOUDY    62  58  87 S5        30.10S
OCONTO         NOT AVBL
STURGEON BAY   CLEAR     64  58  80 S12       30.12S
GREEN BAY      CLOUDY    60  59  96 S7        30.11S
MANITOWOC      NOT AVBL
APPLETON       PTCLDY    63  55  77 S7        30.10R
CLINTONVILLE   CLOUDY    57  55  94 S5        30.10R
OSHKOSH        CLOUDY    61  56  83 S9        30.11S
$$

WIZ032>034-041-042-053>061-231200-
SOUTHWEST WISCONSIN

CITY           SKY/WX    TMP DP  RH WIND       PRES   REMARKS
LA CROSSE      CLEAR     68  66  93 S15       30.04S
SPARTA         CLEAR     63  59  87 CALM      30.07S
VIROQUA        CLEAR     62  59  91 S8        30.08S
BOSCOBEL       CLEAR     59  57  93 CALM      30.10R
PRAIRIE DU CHI PTCLDY    63  57  83 E6        30.07S
PLATTEVILLE    PTCLDY    60  60  98 SE7       30.12S
$$

WIZ056-057-062-063-064-067-068-231200-
SOUTH CENTRAL WISCONSIN

CITY           SKY/WX    TMP DP  RH WIND       PRES   REMARKS
REEDSBURG      NOT AVBL
BARABOO/DELLS  CLEAR     61  56  83 SW5       30.10S
LONE ROCK      NOT AVBL
MINERAL POINT  CLEAR     59  59 100 SE7       30.12S
MADISON        PTCLDY    63  57  81 VRB3      30.12S
MIDDLETON      CLEAR     63  57  82 S5        30.13R
WATERTOWN      CLEAR     59  58  97 CALM      30.14R
MONROE         CLEAR     59  55  88 S8        30.14R
JANESVILLE     CLEAR     59  57  94 CALM      30.14S
$$

WIZ051-052-058>065-066-070>072-231200-
SOUTHEAST WISCONSIN

CITY           SKY/WX    TMP DP  RH WIND       PRES   REMARKS
MILWAUKEE      PTCLDY    64  57  78 SW9       30.16R
WAUKESHA       CLEAR     59  55  88 S7        30.17R
MILWAUKEE/TIMM CLEAR     61  54  77 S5        30.17R
RACINE         CLEAR     64  57  78 S8        30.18S
BURLINGTON     CLEAR     52  52  99 CALM      30.16F
KENOSHA        CLEAR     61  57  87 S6        30.17S
FOND DU LAC    PTCLDY    64  57  78 S9        30.13R
SHEBOYGAN      CLEAR     61  56  83 S8        30.15R
WEST BEND      CLOUDY    59  55  88 CALM      30.15S
JUNEAU         CLOUDY    59  56  89 SE6       30.15R
$$

LSZ147-162-231200-
LAKE SUPERIOR

STATION/POSITION TIME  TEMP    WIND        PRES    WAVE
                       AIR SEA DIR/SP/G            HT/PER
                 (UTC) (F)     (DEG/KT/KT) (MB)    (FT/S)
W MID LAKE BUOY  0950   69 67  220/ 17/ 21 1012.0F   3/ 4
DEVILS ISLAND    1000   70     200/  5/  7 1012.9R
SAXON HARBOR     1000   71     200/ 13/ 19 1013.5R
$$

LMZ867-665-643>646-231200-
LAKE MICHIGAN

STATION/POSITION TIME  TEMP    WIND        PRES    WAVE
                       AIR SEA DIR/SP/G            HT/PER
                 (UTC) (F)     (DEG/KT/KT) (MB)    (FT/S)
CHAMBERS ISLAND  1000   70     180/  7/ 18 1018.6S
S GREEN BAY BUOY 1000   69 73  180/ 16/ 19 1018.6F
N MID LAKE BUOY  0950   72 71  210/ 23/ 27 1017.5R   5/ 6
NORTHPORT PIER   1000   68     180/  4/ 10 1019.0R
KEWAUNEE LAKESHO 1000   65     190/ 11/ 13 1019.6F
SHEBOYGAN LAKESH 1000   61     180/ 14/ 15 1020.8S
PORT WASHINGTON  1000   61      CALM  /  2 1021.7R
ATWATER BUOY     1000   62 56  170/  8/ 10   N/A
MILWAUKEE LAKESH 1010   65     210/  6/  7   N/A
S MID LAKE BUOY  0950   73 75  190/ 16/ 17 1021.2R   3/ 5
KENOSHA   LAKESH 1000   65     210/  5/  8 1021.3S
$$

TC  - TEMPERATURE IN CELSIUS
VSB - VISIBILITY IN STATUTE MILES
WCI - WIND CHILL INDEX
HX  - HEAT INDEX





USA.gov is the U.S. government's official web portal to all federal, state and local government web resources and services.